Time,TemperatureF,DewpointF,PressureIn,WindDirection,WindDirectionDegrees,WindSpeedMPH,WindSpeedGustMPH,Humidity,HourlyPrecipIn,Conditions,Clouds,dailyrainin,SolarRadiationWatts/m^2,SoftwareType,DateUTC
2013-01-12 00:01:00,43.9,43.9,30.08,SW,217,0.0,4.0,100,0.00,,,0.02,0.0,meteohub,2013-01-12 05:01:00,
2013-01-12 00:02:00,43.9,43.9,30.08,SW,217,3.0,4.0,100,0.00,,,0.02,0.0,meteohub,2013-01-12 05:02:00,
2013-01-12 00:05:00,43.7,43.7,30.08,SW,217,0.0,4.0,100,0.00,,,0.02,0.0,meteohub,2013-01-12 05:05:00,
2013-01-12 00:10:00,43.7,43.7,30.08,SW,217,2.0,4.0,100,0.00,,,0.00,0.0,meteohub,2013-01-12 05:10:00,
2013-01-12 00:15:00,43.7,43.7,30.08,SW,217,0.0,4.0,100,0.00,,,0.00,0.0,meteohub,2013-01-12 05:15:00,
2013-01-12 00:20:00,43.7,43.7,30.08,SW,217,0.0,3.0,100,0.00,,,0.00,0.0,meteohub,2013-01-12 05:20:00,
2013-01-12 00:25:00,43.7,43.7,30.08,SW,217,1.0,2.0,100,0.00,,,0.00,0.0,meteohub,2013-01-12 05:25:00,
2013-01-12 00:30:00,43.7,43.7,30.08,SW,217,0.0,3.0,100,0.00,,,0.00,0.0,meteohub,2013-01-12 05:30:00,
2013-01-12 00:35:00,43.7,43.7,30.08,SW,217,0.0,3.0,100,0.00,,,0.00,0.0,meteohub,2013-01-12 05:35:00,
2013-01-12 00:41:00,43.5,43.5,30.08,SW,217,0.0,2.0,100,0.00,,,0.00,0.0,meteohub,2013-01-12 05:41:00,
2013-01-12 00:46:00,43.5,43.5,30.08,SW,217,0.0,2.0,100,0.00,,,0.00,0.0,meteohub,2013-01-12 05:46:00,
2013-01-12 00:51:00,43.5,43.5,30.08,SW,217,0.0,2.0,100,0.00,,,0.00,0.0,meteohub,2013-01-12 05:51:00,
2013-01-12 00:56:00,43.5,43.5,30.08,SW,217,0.0,2.0,100,0.00,,,0.00,0.0,meteohub,2013-01-12 05:56:00,
2013-01-12 01:01:00,43.5,43.5,30.08,SW,217,0.0,1.0,100,0.00,,,0.00,0.0,meteohub,2013-01-12 06:01:00,
2013-01-12 01:06:00,43.5,43.5,30.08,SW,217,0.0,1.0,100,0.00,,,0.00,0.0,meteohub,2013-01-12 06:06:00,
2013-01-12 01:11:00,43.5,43.5,30.08,SW,217,0.0,1.0,100,0.00,,,0.00,0.0,meteohub,2013-01-12 06:11:00,
2013-01-12 01:16:00,43.5,43.5,30.08,SW,217,0.0,1.0,100,0.00,,,0.00,0.0,meteohub,2013-01-12 06:16:00,
2013-01-12 01:21:00,43.5,43.5,30.09,SW,217,0.0,0.0,100,0.00,,,0.00,0.0,meteohub,2013-01-12 06:21:00,
2013-01-12 01:26:00,43.5,43.5,30.09,SW,217,0.0,1.0,100,0.00,,,0.00,0.0,meteohub,2013-01-12 06:26:00,
2013-01-12 01:32:00,43.5,43.5,30.09,SW,217,0.0,2.0,100,0.00,,,0.00,0.0,meteohub,2013-01-12 06:32:00,
2013-01-12 01:37:00,43.5,43.5,30.09,SW,217,0.0,2.0,100,0.00,,,0.00,0.0,meteohub,2013-01-12 06:37:00,
2013-01-12 01:42:00,43.5,43.5,30.09,SW,217,0.0,2.0,100,0.00,,,0.00,0.0,meteohub,2013-01-12 06:42:00,
2013-01-12 01:47:00,43.5,43.5,30.09,SW,217,0.0,2.0,100,0.00,,,0.00,0.0,meteohub,2013-01-12 06:47:00,
2013-01-12 01:52:00,43.5,43.5,30.09,SW,217,0.0,0.0,100,0.00,,,0.00,0.0,meteohub,2013-01-12 06:52:00,
2013-01-12 01:57:00,43.5,43.5,30.09,SW,217,0.0,0.0,100,0.00,,,0.00,0.0,meteohub,2013-01-12 06:57:00,
2013-01-12 02:02:00,43.5,43.5,30.09,SW,217,0.0,0.0,100,0.00,,,0.00,0.0,meteohub,2013-01-12 07:02:00,
2013-01-12 02:07:00,43.5,43.5,30.09,SW,217,0.0,0.0,100,0.00,,,0.00,0.0,meteohub,2013-01-12 07:07:00,
2013-01-12 02:12:00,43.5,43.5,30.09,SW,217,0.0,1.0,100,0.00,,,0.00,0.0,meteohub,2013-01-12 07:12:00,
2013-01-12 02:17:00,43.5,43.5,30.09,SW,217,0.0,1.0,100,0.00,,,0.00,0.0,meteohub,2013-01-12 07:17:00,
2013-01-12 02:22:00,43.3,43.3,30.10,SW,217,0.0,1.0,100,0.00,,,0.00,0.0,meteohub,2013-01-12 07:22:00,
2013-01-12 02:27:00,43.5,43.5,30.10,SW,217,0.0,0.0,100,0.00,,,0.00,0.0,meteohub,2013-01-12 07:27:00,
2013-01-12 02:32:00,43.5,43.5,30.10,SW,217,0.0,0.0,100,0.00,,,0.00,0.0,meteohub,2013-01-12 07:32:00,
2013-01-12 02:37:00,43.5,43.5,30.11,SW,217,0.0,1.0,100,0.00,,,0.00,0.0,meteohub,2013-01-12 07:37:00,
2013-01-12 02:42:00,43.3,43.3,30.10,SW,217,0.0,2.0,100,0.00,,,0.00,0.0,meteohub,2013-01-12 07:42:00,
2013-01-12 02:47:00,43.3,43.3,30.10,SW,217,0.0,2.0,100,0.00,,,0.00,0.0,meteohub,2013-01-12 07:47:00,
2013-01-12 02:52:00,43.3,43.3,30.10,SW,217,0.0,1.0,100,0.00,,,0.00,0.0,meteohub,2013-01-12 07:52:00,
2013-01-12 02:57:00,43.3,43.3,30.10,SW,217,0.0,1.0,100,0.00,,,0.00,0.0,meteohub,2013-01-12 07:57:00,
2013-01-12 03:02:00,43.3,43.3,30.10,SW,217,0.0,1.0,100,0.00,,,0.00,0.0,meteohub,2013-01-12 08:02:00,
2013-01-12 03:07:00,43.3,43.3,30.10,SW,217,0.0,0.0,100,0.00,,,0.00,0.0,meteohub,2013-01-12 08:07:00,
2013-01-12 03:12:00,43.3,43.3,30.10,SW,217,0.0,0.0,100,0.00,,,0.00,0.0,meteohub,2013-01-12 08:12:00,
2013-01-12 03:17:00,43.3,43.3,30.09,SW,217,0.0,1.0,100,0.00,,,0.00,0.0,meteohub,2013-01-12 08:17:00,
2013-01-12 03:22:00,43.3,43.3,30.09,SW,217,0.0,1.0,100,0.00,,,0.00,0.0,meteohub,2013-01-12 08:22:00,
2013-01-12 03:27:00,43.3,43.3,30.09,SW,217,0.0,0.0,100,0.00,,,0.00,0.0,meteohub,2013-01-12 08:27:00,
2013-01-12 03:32:00,43.3,43.3,30.10,SW,217,0.0,0.0,100,0.00,,,0.00,0.0,meteohub,2013-01-12 08:32:00,
2013-01-12 03:37:00,43.3,43.3,30.10,SW,217,0.0,0.0,100,0.00,,,0.00,0.0,meteohub,2013-01-12 08:37:00,
2013-01-12 03:42:00,43.3,43.3,30.10,SW,217,0.0,0.0,100,0.00,,,0.00,0.0,meteohub,2013-01-12 08:42:00,
2013-01-12 03:47:00,43.3,43.3,30.10,SW,217,0.0,0.0,100,0.00,,,0.00,0.0,meteohub,2013-01-12 08:47:00,
2013-01-12 03:52:00,43.3,43.3,30.10,SW,217,0.0,0.0,100,0.00,,,0.00,0.0,meteohub,2013-01-12 08:52:00,
2013-01-12 03:57:00,43.3,43.3,30.09,SW,217,0.0,0.0,100,0.00,,,0.00,0.0,meteohub,2013-01-12 08:57:00,
2013-01-12 04:02:00,43.3,43.3,30.09,SW,217,0.0,0.0,100,0.00,,,0.00,0.0,meteohub,2013-01-12 09:02:00,
2013-01-12 04:07:00,43.3,43.3,30.09,SW,217,0.0,0.0,100,0.00,,,0.00,0.0,meteohub,2013-01-12 09:07:00,
2013-01-12 04:12:00,43.3,43.3,30.09,SW,217,0.0,0.0,100,0.00,,,0.00,0.0,meteohub,2013-01-12 09:12:00,
2013-01-12 04:17:00,43.3,43.3,30.10,SW,217,0.0,0.0,100,0.00,,,0.00,0.0,meteohub,2013-01-12 09:17:00,
2013-01-12 04:22:00,43.3,43.3,30.09,SW,215,0.0,0.0,100,0.00,,,0.00,0.0,meteohub,2013-01-12 09:22:00,
2013-01-12 04:27:00,43.3,43.3,30.09,SW,214,0.0,2.0,100,0.00,,,0.00,0.0,meteohub,2013-01-12 09:27:00,
2013-01-12 04:32:00,43.3,43.3,30.09,SW,214,0.0,2.0,100,0.00,,,0.00,0.0,meteohub,2013-01-12 09:32:00,
2013-01-12 04:37:00,43.3,43.3,30.09,SW,215,0.0,1.0,100,0.00,,,0.00,0.0,meteohub,2013-01-12 09:37:00,
2013-01-12 04:42:00,43.3,43.3,30.09,SW,215,0.0,1.0,100,0.00,,,0.00,0.0,meteohub,2013-01-12 09:42:00,
2013-01-12 04:47:00,43.3,43.3,30.10,SW,214,1.0,0.0,100,0.00,,,0.00,0.0,meteohub,2013-01-12 09:47:00,
2013-01-12 04:52:00,43.3,43.3,30.09,SW,215,0.0,1.0,100,0.00,,,0.00,0.0,meteohub,2013-01-12 09:52:00,
2013-01-12 04:57:00,43.3,43.3,30.09,SW,215,0.0,1.0,100,0.00,,,0.00,0.0,meteohub,2013-01-12 09:57:00,
2013-01-12 05:02:00,43.3,43.3,30.09,SW,214,0.0,1.0,100,0.00,,,0.00,0.0,meteohub,2013-01-12 10:02:00,
2013-01-12 05:07:00,43.3,43.3,30.10,SW,214,0.0,1.0,100,0.00,,,0.00,0.0,meteohub,2013-01-12 10:07:00,
2013-01-12 05:12:00,43.3,43.3,30.10,SW,215,0.0,0.0,100,0.00,,,0.00,0.0,meteohub,2013-01-12 10:12:00,
2013-01-12 05:17:00,43.3,43.3,30.09,SW,215,0.0,0.0,100,0.00,,,0.00,0.0,meteohub,2013-01-12 10:17:00,
2013-01-12 05:22:00,43.5,43.5,30.10,SW,215,0.0,1.0,100,0.00,,,0.00,0.0,meteohub,2013-01-12 10:22:00,
2013-01-12 05:27:00,43.3,43.3,30.09,SW,214,0.0,1.0,100,0.00,,,0.00,0.0,meteohub,2013-01-12 10:27:00,
2013-01-12 05:32:00,43.3,43.3,30.10,SW,215,0.0,1.0,100,0.00,,,0.00,0.0,meteohub,2013-01-12 10:32:00,
2013-01-12 05:37:00,43.5,43.5,30.10,SW,215,0.0,0.0,100,0.00,,,0.00,0.0,meteohub,2013-01-12 10:37:00,
2013-01-12 05:42:00,43.5,43.5,30.10,SSW,211,0.0,1.0,100,0.00,,,0.00,0.0,meteohub,2013-01-12 10:42:00,
2013-01-12 05:47:00,43.5,43.5,30.10,SSW,211,0.0,1.0,100,0.00,,,0.00,0.0,meteohub,2013-01-12 10:47:00,
2013-01-12 05:52:00,43.5,43.5,30.10,SSW,211,0.0,2.0,100,0.00,,,0.00,0.0,meteohub,2013-01-12 10:52:00,
2013-01-12 05:57:00,43.5,43.5,30.10,SSW,211,0.0,2.0,100,0.00,,,0.00,0.0,meteohub,2013-01-12 10:57:00,
2013-01-12 06:02:00,43.5,43.5,30.10,SSW,211,0.0,1.0,100,0.00,,,0.00,0.0,meteohub,2013-01-12 11:02:00,
2013-01-12 06:07:00,43.5,43.5,30.11,SSW,211,0.0,1.0,100,0.00,,,0.00,0.0,meteohub,2013-01-12 11:07:00,
2013-01-12 06:12:00,43.7,43.7,30.11,SSW,211,0.0,1.0,100,0.00,,,0.00,0.0,meteohub,2013-01-12 11:12:00,
2013-01-12 06:17:00,43.7,43.7,30.11,SSW,211,0.0,1.0,100,0.00,,,0.00,0.0,meteohub,2013-01-12 11:17:00,
2013-01-12 06:22:00,43.7,43.7,30.11,SSW,211,0.0,0.0,100,0.00,,,0.00,0.0,meteohub,2013-01-12 11:22:00,
2013-01-12 06:27:00,43.7,43.7,30.11,SSW,211,0.0,0.0,100,0.00,,,0.00,0.0,meteohub,2013-01-12 11:27:00,
2013-01-12 06:32:00,43.7,43.7,30.11,SSW,211,0.0,0.0,100,0.00,,,0.00,0.0,meteohub,2013-01-12 11:32:00,
2013-01-12 06:37:00,43.7,43.7,30.12,SSW,211,0.0,1.0,100,0.00,,,0.00,0.0,meteohub,2013-01-12 11:37:00,
2013-01-12 06:42:00,43.7,43.7,30.12,SSW,211,0.0,1.0,100,0.00,,,0.00,0.0,meteohub,2013-01-12 11:42:00,
2013-01-12 06:47:00,43.7,43.7,30.12,SSW,211,0.0,1.0,100,0.00,,,0.00,0.0,meteohub,2013-01-12 11:47:00,
2013-01-12 06:52:00,43.7,43.7,30.12,SSW,211,0.0,1.0,100,0.00,,,0.00,0.0,meteohub,2013-01-12 11:52:00,
2013-01-12 06:57:00,43.7,43.7,30.12,SSW,211,0.0,1.0,100,0.00,,,0.00,0.0,meteohub,2013-01-12 11:57:00,
2013-01-12 07:02:00,43.7,43.7,30.12,SSW,211,0.0,1.0,100,0.00,,,0.00,0.0,meteohub,2013-01-12 12:02:00,
2013-01-12 07:07:00,43.7,43.7,30.12,SSW,211,0.0,1.0,100,0.00,,,0.00,0.0,meteohub,2013-01-12 12:07:00,
2013-01-12 07:12:00,43.7,43.7,30.13,SSW,211,0.0,0.0,100,0.00,,,0.00,0.0,meteohub,2013-01-12 12:12:00,
2013-01-12 07:17:00,43.7,43.7,30.12,SSW,211,0.0,0.0,100,0.00,,,0.00,0.0,meteohub,2013-01-12 12:17:00,
2013-01-12 07:23:00,43.7,43.7,30.12,SSW,211,0.0,0.0,100,0.00,,,0.00,0.0,meteohub,2013-01-12 12:23:00,
2013-01-12 07:28:00,43.7,43.7,30.13,SSW,211,0.0,0.0,100,0.00,,,0.00,0.0,meteohub,2013-01-12 12:28:00,
2013-01-12 07:33:00,43.7,43.7,30.13,SSW,211,0.0,0.0,100,0.00,,,0.00,0.0,meteohub,2013-01-12 12:33:00,
2013-01-12 07:38:00,43.7,43.7,30.13,SSW,211,0.0,0.0,100,0.00,,,0.00,5.0,meteohub,2013-01-12 12:38:00,
2013-01-12 07:43:00,43.7,43.7,30.14,SSW,211,0.0,0.0,100,0.00,,,0.00,7.0,meteohub,2013-01-12 12:43:00,
2013-01-12 07:48:00,43.7,43.7,30.14,SSW,211,0.0,1.0,100,0.00,,,0.00,9.0,meteohub,2013-01-12 12:48:00,
2013-01-12 07:53:00,43.7,43.7,30.13,SSW,211,0.0,1.0,100,0.00,,,0.00,7.0,meteohub,2013-01-12 12:53:00,
2013-01-12 07:58:00,43.9,43.9,30.13,SSW,211,0.0,1.0,100,0.00,,,0.00,9.0,meteohub,2013-01-12 12:58:00,
2013-01-12 08:03:00,43.7,43.7,30.14,SSW,211,0.0,0.0,100,0.00,,,0.00,11.0,meteohub,2013-01-12 13:03:00,
2013-01-12 08:08:00,43.9,43.9,30.14,SSW,211,0.0,0.0,100,0.00,,,0.00,12.0,meteohub,2013-01-12 13:08:00,
2013-01-12 08:13:00,43.9,43.9,30.14,SSW,211,0.0,1.0,100,0.00,,,0.00,21.0,meteohub,2013-01-12 13:13:00,
2013-01-12 08:18:00,43.9,43.9,30.14,SSW,211,0.0,1.0,100,0.00,,,0.00,25.0,meteohub,2013-01-12 13:18:00,
2013-01-12 08:23:00,44.1,44.1,30.14,SSW,211,0.0,1.0,100,0.00,,,0.00,35.0,meteohub,2013-01-12 13:23:00,
2013-01-12 08:28:00,44.1,44.1,30.14,SSW,211,0.0,0.0,100,0.00,,,0.00,49.0,meteohub,2013-01-12 13:28:00,
2013-01-12 08:34:00,44.2,44.2,30.14,SSW,211,0.0,1.0,100,0.00,,,0.00,54.0,meteohub,2013-01-12 13:34:00,
2013-01-12 08:39:00,44.2,44.2,30.15,SSW,211,0.0,2.0,100,0.00,,,0.00,54.0,meteohub,2013-01-12 13:39:00,
2013-01-12 08:44:00,44.2,44.2,30.14,SSW,211,0.0,2.0,100,0.00,,,0.00,53.0,meteohub,2013-01-12 13:44:00,
2013-01-12 08:49:00,44.4,44.4,30.14,SSW,211,0.0,2.0,100,0.00,,,0.00,63.0,meteohub,2013-01-12 13:49:00,
2013-01-12 08:54:00,44.4,44.4,30.14,SSW,211,0.0,2.0,100,0.00,,,0.00,53.0,meteohub,2013-01-12 13:54:00,
2013-01-12 08:59:00,44.4,44.4,30.14,SSW,211,0.0,2.0,100,0.00,,,0.00,49.0,meteohub,2013-01-12 13:59:00,
2013-01-12 09:04:00,44.4,44.4,30.14,SSW,211,0.0,1.0,100,0.00,,,0.00,56.0,meteohub,2013-01-12 14:04:00,
2013-01-12 09:09:00,44.4,44.4,30.14,SSW,211,0.0,1.0,100,0.00,,,0.00,86.0,meteohub,2013-01-12 14:09:00,
2013-01-12 09:14:00,44.4,44.4,30.14,SSW,211,0.0,1.0,100,0.00,,,0.00,86.0,meteohub,2013-01-12 14:14:00,
2013-01-12 09:19:00,44.8,44.8,30.14,SSW,211,0.0,1.0,100,0.00,,,0.00,67.0,meteohub,2013-01-12 14:19:00,
2013-01-12 09:24:00,44.8,44.8,30.14,SSW,211,0.0,1.0,100,0.00,,,0.00,58.0,meteohub,2013-01-12 14:24:00,
2013-01-12 09:29:00,44.8,44.8,30.14,SSW,211,0.0,0.0,100,0.00,,,0.00,58.0,meteohub,2013-01-12 14:29:00,
2013-01-12 09:35:00,45.0,45.0,30.14,SSW,211,0.0,1.0,100,0.00,,,0.00,70.0,meteohub,2013-01-12 14:35:00,
2013-01-12 09:40:00,45.0,45.0,30.14,SSW,211,0.0,1.0,100,0.00,,,0.00,81.0,meteohub,2013-01-12 14:40:00,
2013-01-12 09:45:00,45.0,45.0,30.14,SSW,211,0.0,1.0,100,0.00,,,0.00,83.0,meteohub,2013-01-12 14:45:00,
2013-01-12 09:50:00,45.0,45.0,30.15,SSW,211,0.0,1.0,100,0.00,,,0.00,65.0,meteohub,2013-01-12 14:50:00,
2013-01-12 09:55:00,45.0,45.0,30.15,SSW,211,0.0,1.0,100,0.00,,,0.00,54.0,meteohub,2013-01-12 14:55:00,
2013-01-12 10:00:00,45.0,45.0,30.14,SSW,211,0.0,1.0,100,0.00,,,0.00,77.0,meteohub,2013-01-12 15:00:00,
2013-01-12 10:05:00,45.0,45.0,30.14,SSW,211,0.0,1.0,100,0.00,,,0.00,105.0,meteohub,2013-01-12 15:05:00,
2013-01-12 10:10:00,45.0,45.0,30.14,SSW,211,0.0,1.0,100,0.00,,,0.00,113.0,meteohub,2013-01-12 15:10:00,
2013-01-12 10:15:00,45.1,45.1,30.15,SSW,211,0.0,1.0,100,0.00,,,0.00,62.0,meteohub,2013-01-12 15:15:00,
2013-01-12 10:20:00,45.1,45.1,30.15,SSW,211,0.0,1.0,100,0.00,,,0.00,104.0,meteohub,2013-01-12 15:20:00,
2013-01-12 10:25:00,45.1,45.1,30.15,SSW,211,0.0,1.0,100,0.00,,,0.00,107.0,meteohub,2013-01-12 15:25:00,
2013-01-12 10:30:00,45.3,45.3,30.15,SSW,211,0.0,1.0,100,0.00,,,0.00,95.0,meteohub,2013-01-12 15:30:00,
2013-01-12 10:35:00,45.3,45.3,30.15,SSW,211,0.0,1.0,100,0.00,,,0.00,127.0,meteohub,2013-01-12 15:35:00,
2013-01-12 10:40:00,45.3,45.3,30.16,SSW,211,0.0,1.0,100,0.00,,,0.00,105.0,meteohub,2013-01-12 15:40:00,
2013-01-12 10:45:00,45.5,45.5,30.15,SSW,211,0.0,1.0,100,0.00,,,0.00,116.0,meteohub,2013-01-12 15:45:00,
2013-01-12 10:51:00,45.5,45.5,30.15,SSW,211,2.0,3.0,100,0.00,,,0.00,113.0,meteohub,2013-01-12 15:51:00,
2013-01-12 10:56:00,45.5,45.5,30.15,SSW,211,0.0,3.0,100,0.00,,,0.00,114.0,meteohub,2013-01-12 15:56:00,
2013-01-12 11:01:00,45.7,45.7,30.15,SSW,211,1.0,2.0,100,0.00,,,0.00,128.0,meteohub,2013-01-12 16:01:00,
2013-01-12 11:06:00,45.7,45.7,30.15,SSW,211,0.0,3.0,100,0.00,,,0.00,132.0,meteohub,2013-01-12 16:06:00,
2013-01-12 11:11:00,45.7,45.7,30.14,SSW,211,0.0,3.0,100,0.00,,,0.00,171.0,meteohub,2013-01-12 16:11:00,
2013-01-12 11:16:00,45.9,45.9,30.14,SSW,211,0.0,2.0,100,0.00,,,0.00,213.0,meteohub,2013-01-12 16:16:00,
2013-01-12 11:21:00,46.0,46.0,30.14,SSW,211,0.0,2.0,100,0.00,,,0.00,172.0,meteohub,2013-01-12 16:21:00,
2013-01-12 11:26:00,46.2,46.2,30.14,SSW,211,0.0,2.0,100,0.00,,,0.00,130.0,meteohub,2013-01-12 16:26:00,
2013-01-12 11:31:00,46.2,46.2,30.14,SSW,211,0.0,1.0,100,0.00,,,0.00,162.0,meteohub,2013-01-12 16:31:00,
2013-01-12 11:36:00,46.4,46.4,30.13,SSW,211,1.0,2.0,100,0.00,,,0.00,141.0,meteohub,2013-01-12 16:36:00,
2013-01-12 11:41:00,46.4,46.4,30.13,SSW,211,0.0,2.0,100,0.00,,,0.00,156.0,meteohub,2013-01-12 16:41:00,
2013-01-12 11:46:00,46.6,46.6,30.13,SSW,211,0.0,2.0,100,0.00,,,0.00,149.0,meteohub,2013-01-12 16:46:00,
2013-01-12 11:51:00,46.6,46.6,30.13,SSW,211,1.0,2.0,100,0.00,,,0.00,179.0,meteohub,2013-01-12 16:51:00,
2013-01-12 11:56:00,46.8,46.8,30.13,SSW,211,0.0,3.0,100,0.00,,,0.00,192.0,meteohub,2013-01-12 16:56:00,
2013-01-12 12:01:00,46.9,46.9,30.13,SSW,211,0.0,3.0,100,0.00,,,0.00,199.0,meteohub,2013-01-12 17:01:00,
2013-01-12 12:07:00,47.1,47.1,30.13,SSW,211,1.0,2.0,100,0.00,,,0.00,213.0,meteohub,2013-01-12 17:07:00,
2013-01-12 12:12:00,47.5,47.5,30.13,SSW,211,0.0,2.0,100,0.00,,,0.00,239.0,meteohub,2013-01-12 17:12:00,
2013-01-12 12:17:00,47.7,47.7,30.12,SSW,211,0.0,2.0,100,0.00,,,0.00,236.0,meteohub,2013-01-12 17:17:00,
2013-01-12 12:22:00,48.0,48.0,30.12,SSW,211,2.0,2.0,100,0.00,,,0.00,272.0,meteohub,2013-01-12 17:22:00,
2013-01-12 12:27:00,48.2,48.2,30.12,SSW,211,2.0,2.0,100,0.00,,,0.00,258.0,meteohub,2013-01-12 17:27:00,
2013-01-12 12:32:00,48.4,48.4,30.12,SSW,211,0.0,3.0,100,0.00,,,0.00,234.0,meteohub,2013-01-12 17:32:00,
2013-01-12 12:37:00,48.6,48.6,30.12,SSW,211,0.0,3.0,100,0.00,,,0.00,206.0,meteohub,2013-01-12 17:37:00,
2013-01-12 12:42:00,48.6,48.6,30.12,SSW,211,0.0,3.0,100,0.00,,,0.00,239.0,meteohub,2013-01-12 17:42:00,
2013-01-12 12:47:00,48.7,48.6,30.12,SSW,211,0.0,4.0,99,0.00,,,0.00,234.0,meteohub,2013-01-12 17:47:00,
2013-01-12 12:52:00,48.9,48.7,30.11,SSW,211,0.0,4.0,99,0.00,,,0.00,346.0,meteohub,2013-01-12 17:52:00,
2013-01-12 12:57:00,49.3,48.7,30.11,SSW,211,0.0,4.0,98,0.00,,,0.00,265.0,meteohub,2013-01-12 17:57:00,
2013-01-12 13:02:00,49.5,48.6,30.12,SSW,211,0.0,3.0,97,0.00,,,0.00,234.0,meteohub,2013-01-12 18:02:00,
2013-01-12 13:07:00,49.6,48.7,30.12,SSW,211,0.0,3.0,97,0.00,,,0.00,285.0,meteohub,2013-01-12 18:07:00,
2013-01-12 13:12:00,49.6,48.6,30.11,SSW,210,0.0,3.0,96,0.00,,,0.00,265.0,meteohub,2013-01-12 18:12:00,
2013-01-12 13:17:00,49.8,48.7,30.11,SSW,210,0.0,3.0,96,0.00,,,0.00,401.0,meteohub,2013-01-12 18:17:00,
2013-01-12 13:22:00,50.4,49.3,30.11,SSW,210,0.0,3.0,96,0.00,,,0.00,401.0,meteohub,2013-01-12 18:22:00,
2013-01-12 13:27:00,50.7,49.6,30.11,SSW,210,1.0,2.0,96,0.00,,,0.00,438.0,meteohub,2013-01-12 18:27:00,
2013-01-12 13:32:00,50.9,49.3,30.10,SSW,210,0.0,3.0,94,0.00,,,0.00,461.0,meteohub,2013-01-12 18:32:00,
2013-01-12 13:37:00,50.7,49.1,30.10,SSW,210,0.0,3.0,94,0.00,,,0.00,236.0,meteohub,2013-01-12 18:37:00,
2013-01-12 13:42:00,50.9,49.3,30.10,SSW,210,1.0,3.0,94,0.01,,,0.01,323.0,meteohub,2013-01-12 18:42:00,
2013-01-12 13:47:00,51.1,49.5,30.10,SSW,210,0.0,3.0,94,0.01,,,0.01,390.0,meteohub,2013-01-12 18:47:00,
2013-01-12 13:52:00,51.1,49.1,30.10,SSW,210,1.0,3.0,93,0.01,,,0.01,415.0,meteohub,2013-01-12 18:52:00,
2013-01-12 13:57:00,51.1,49.1,30.10,SSW,205,0.0,3.0,93,0.01,,,0.01,459.0,meteohub,2013-01-12 18:57:00,
2013-01-12 14:02:00,51.3,49.3,30.10,SSW,205,0.0,4.0,93,0.01,,,0.01,432.0,meteohub,2013-01-12 19:02:00,
2013-01-12 14:07:00,51.8,49.8,30.10,SSW,205,0.0,4.0,93,0.01,,,0.01,401.0,meteohub,2013-01-12 19:07:00,
2013-01-12 14:12:00,52.2,49.8,30.10,SW,216,0.0,2.0,92,0.01,,,0.01,424.0,meteohub,2013-01-12 19:12:00,
2013-01-12 14:17:00,52.3,49.8,30.10,SSW,207,0.0,4.0,91,0.01,,,0.01,343.0,meteohub,2013-01-12 19:17:00,
2013-01-12 14:22:00,52.5,50.0,30.10,SSW,207,0.0,4.0,91,0.01,,,0.01,320.0,meteohub,2013-01-12 19:22:00,
2013-01-12 14:28:00,52.9,50.4,30.10,SSW,208,0.0,4.0,91,0.01,,,0.01,274.0,meteohub,2013-01-12 19:28:00,
2013-01-12 14:33:00,52.9,50.0,30.10,SSW,209,1.0,3.0,90,0.01,,,0.01,281.0,meteohub,2013-01-12 19:33:00,
2013-01-12 14:38:00,52.7,49.8,30.11,SSW,209,0.0,3.0,90,0.01,,,0.01,246.0,meteohub,2013-01-12 19:38:00,
2013-01-12 14:43:00,52.7,50.2,30.10,SSW,209,0.0,5.0,91,0.00,,,0.01,190.0,meteohub,2013-01-12 19:43:00,
2013-01-12 14:48:00,52.5,50.0,30.10,SSW,205,0.0,5.0,91,0.00,,,0.01,179.0,meteohub,2013-01-12 19:48:00,
2013-01-12 14:53:00,52.3,49.8,30.10,SSW,205,2.0,4.0,91,0.00,,,0.01,160.0,meteohub,2013-01-12 19:53:00,
2013-01-12 14:58:00,52.2,49.6,30.10,SSW,202,1.0,3.0,91,0.00,,,0.01,155.0,meteohub,2013-01-12 19:58:00,
2013-01-12 15:03:00,51.8,49.3,30.10,SSW,202,0.0,3.0,91,0.00,,,0.01,162.0,meteohub,2013-01-12 20:03:00,
2013-01-12 15:08:00,51.4,48.9,30.10,SSW,205,0.0,3.0,91,0.00,,,0.01,144.0,meteohub,2013-01-12 20:08:00,
2013-01-12 15:13:00,51.1,48.9,30.10,SSW,205,0.0,3.0,92,0.00,,,0.01,181.0,meteohub,2013-01-12 20:13:00,
2013-01-12 15:18:00,50.7,48.6,30.10,SSW,204,0.0,3.0,92,0.00,,,0.01,179.0,meteohub,2013-01-12 20:18:00,
2013-01-12 15:23:00,50.7,48.7,30.10,SSW,206,1.0,4.0,93,0.00,,,0.01,132.0,meteohub,2013-01-12 20:23:00,
2013-01-12 15:28:00,50.5,48.6,30.10,SSW,195,0.0,4.0,93,0.00,,,0.01,104.0,meteohub,2013-01-12 20:28:00,
2013-01-12 15:33:00,50.5,48.6,30.10,SSW,198,0.0,5.0,93,0.00,,,0.01,109.0,meteohub,2013-01-12 20:33:00,
2013-01-12 15:39:00,50.5,48.6,30.10,SSW,200,0.0,5.0,93,0.00,,,0.01,90.0,meteohub,2013-01-12 20:39:00,
2013-01-12 15:44:00,50.5,48.6,30.11,SW,221,1.0,5.0,93,0.00,,,0.01,120.0,meteohub,2013-01-12 20:44:00,
2013-01-12 15:49:00,50.5,48.6,30.11,SW,218,0.0,6.0,93,0.00,,,0.01,88.0,meteohub,2013-01-12 20:49:00,
2013-01-12 15:54:00,50.4,48.4,30.11,SW,217,1.0,6.0,93,0.00,,,0.01,81.0,meteohub,2013-01-12 20:54:00,
2013-01-12 15:59:00,50.0,48.0,30.11,SSW,203,2.0,6.0,93,0.00,,,0.01,102.0,meteohub,2013-01-12 20:59:00,
2013-01-12 16:04:00,49.6,47.7,30.11,SSW,205,3.0,3.0,93,0.00,,,0.01,109.0,meteohub,2013-01-12 21:04:00,
2013-01-12 16:09:00,49.5,47.5,30.11,SSW,205,0.0,6.0,93,0.00,,,0.01,93.0,meteohub,2013-01-12 21:09:00,
2013-01-12 16:14:00,49.3,47.7,30.11,SW,215,5.0,6.0,94,0.00,,,0.01,72.0,meteohub,2013-01-12 21:14:00,
2013-01-12 16:19:00,48.7,47.1,30.12,SW,215,0.0,4.0,94,0.00,,,0.01,51.0,meteohub,2013-01-12 21:19:00,
2013-01-12 16:24:00,48.6,46.9,30.12,SW,215,1.0,5.0,94,0.00,,,0.01,74.0,meteohub,2013-01-12 21:24:00,
2013-01-12 16:29:00,48.4,46.9,30.12,SSW,211,0.0,5.0,95,0.00,,,0.01,47.0,meteohub,2013-01-12 21:29:00,
2013-01-12 16:34:00,48.2,46.8,30.12,SSW,211,0.0,3.0,95,0.00,,,0.01,40.0,meteohub,2013-01-12 21:34:00,
2013-01-12 16:39:00,48.0,46.6,30.12,SSW,211,0.0,3.0,95,0.00,,,0.01,33.0,meteohub,2013-01-12 21:39:00,
2013-01-12 16:45:00,47.8,46.8,30.12,SSW,212,2.0,3.0,96,0.00,,,0.01,28.0,meteohub,2013-01-12 21:45:00,
2013-01-12 16:50:00,47.8,46.8,30.12,SSW,211,0.0,2.0,96,0.00,,,0.01,23.0,meteohub,2013-01-12 21:50:00,
2013-01-12 16:55:00,47.8,46.8,30.12,SSW,211,0.0,3.0,96,0.00,,,0.01,12.0,meteohub,2013-01-12 21:55:00,
2013-01-12 17:00:00,47.7,46.6,30.12,SSW,211,0.0,3.0,96,0.00,,,0.01,7.0,meteohub,2013-01-12 22:00:00,
2013-01-12 17:05:00,47.5,46.4,30.11,SW,217,0.0,3.0,96,0.00,,,0.01,0.0,meteohub,2013-01-12 22:05:00,
2013-01-12 17:10:00,47.3,46.2,30.12,SW,217,0.0,4.0,96,0.00,,,0.01,0.0,meteohub,2013-01-12 22:10:00,
2013-01-12 17:15:00,47.1,46.4,30.12,SW,217,0.0,4.0,97,0.00,,,0.01,0.0,meteohub,2013-01-12 22:15:00,
2013-01-12 17:20:00,46.9,46.2,30.12,SW,217,0.0,4.0,97,0.00,,,0.01,0.0,meteohub,2013-01-12 22:20:00,
2013-01-12 17:25:00,46.9,46.2,30.13,SW,217,0.0,3.0,97,0.00,,,0.01,0.0,meteohub,2013-01-12 22:25:00,
2013-01-12 17:30:00,46.8,46.0,30.12,SW,217,0.0,2.0,97,0.00,,,0.01,0.0,meteohub,2013-01-12 22:30:00,
2013-01-12 17:35:00,46.8,46.0,30.12,SW,217,0.0,2.0,97,0.00,,,0.01,0.0,meteohub,2013-01-12 22:35:00,
2013-01-12 17:40:00,46.6,45.9,30.12,SW,217,0.0,2.0,97,0.00,,,0.01,0.0,meteohub,2013-01-12 22:40:00,
2013-01-12 17:45:00,46.6,45.9,30.12,SW,217,0.0,3.0,97,0.00,,,0.01,0.0,meteohub,2013-01-12 22:45:00,
2013-01-12 17:51:00,46.4,45.9,30.12,SW,217,0.0,3.0,98,0.00,,,0.01,0.0,meteohub,2013-01-12 22:51:00,
2013-01-12 17:56:00,46.4,45.9,30.13,SW,217,0.0,3.0,98,0.00,,,0.01,0.0,meteohub,2013-01-12 22:56:00,
2013-01-12 18:01:00,46.2,45.7,30.13,SW,217,0.0,2.0,98,0.00,,,0.01,0.0,meteohub,2013-01-12 23:01:00,
2013-01-12 18:06:00,46.2,45.7,30.13,SW,217,0.0,2.0,98,0.00,,,0.01,0.0,meteohub,2013-01-12 23:06:00,
2013-01-12 18:11:00,46.2,45.7,30.13,SW,217,0.0,3.0,98,0.00,,,0.01,0.0,meteohub,2013-01-12 23:11:00,
2013-01-12 18:16:00,46.2,46.0,30.13,SW,217,0.0,3.0,99,0.00,,,0.01,0.0,meteohub,2013-01-12 23:16:00,
2013-01-12 18:21:00,46.2,46.0,30.12,SW,217,0.0,3.0,99,0.00,,,0.01,0.0,meteohub,2013-01-12 23:21:00,
2013-01-12 18:26:00,46.0,45.9,30.12,SW,217,0.0,3.0,99,0.00,,,0.01,0.0,meteohub,2013-01-12 23:26:00,
2013-01-12 18:31:00,46.0,45.9,30.12,SW,217,0.0,2.0,99,0.00,,,0.01,0.0,meteohub,2013-01-12 23:31:00,
2013-01-12 18:37:00,46.0,45.9,30.12,SW,217,0.0,2.0,99,0.00,,,0.01,0.0,meteohub,2013-01-12 23:37:00,
2013-01-12 18:42:00,45.9,45.7,30.12,SW,217,0.0,2.0,99,0.00,,,0.01,0.0,meteohub,2013-01-12 23:42:00,
2013-01-12 18:47:00,45.9,45.7,30.12,SW,217,0.0,2.0,99,0.00,,,0.01,0.0,meteohub,2013-01-12 23:47:00,
2013-01-12 18:52:00,45.9,45.7,30.12,SW,217,0.0,0.0,99,0.00,,,0.01,0.0,meteohub,2013-01-12 23:52:00,
2013-01-12 18:57:00,45.9,45.7,30.12,SW,217,0.0,0.0,99,0.00,,,0.01,0.0,meteohub,2013-01-12 23:57:00,
2013-01-12 19:02:00,45.9,45.7,30.12,SW,217,0.0,2.0,99,0.00,,,0.01,0.0,meteohub,2013-01-13 00:02:00,
2013-01-12 19:07:00,45.7,45.5,30.11,SW,217,0.0,3.0,99,0.00,,,0.01,0.0,meteohub,2013-01-13 00:07:00,
2013-01-12 19:12:00,45.7,45.5,30.11,SW,217,0.0,3.0,99,0.00,,,0.01,0.0,meteohub,2013-01-13 00:12:00,
2013-01-12 19:17:00,45.7,45.5,30.11,SW,217,0.0,2.0,99,0.00,,,0.01,0.0,meteohub,2013-01-13 00:17:00,
2013-01-12 19:22:00,45.7,45.5,30.11,SW,217,0.0,2.0,99,0.00,,,0.01,0.0,meteohub,2013-01-13 00:22:00,
2013-01-12 19:27:00,45.7,45.5,30.11,SW,217,0.0,2.0,99,0.00,,,0.01,0.0,meteohub,2013-01-13 00:27:00,
2013-01-12 19:32:00,45.7,45.7,30.11,SW,217,0.0,0.0,100,0.00,,,0.01,0.0,meteohub,2013-01-13 00:32:00,
2013-01-12 19:37:00,45.7,45.7,30.11,SW,217,0.0,0.0,100,0.00,,,0.01,0.0,meteohub,2013-01-13 00:37:00,
2013-01-12 19:42:00,45.7,45.7,30.11,SW,217,0.0,0.0,100,0.00,,,0.01,0.0,meteohub,2013-01-13 00:42:00,
2013-01-12 19:47:00,45.9,45.9,30.11,SW,217,0.0,0.0,100,0.00,,,0.01,0.0,meteohub,2013-01-13 00:47:00,
2013-01-12 19:52:00,45.9,45.9,30.11,SW,217,0.0,1.0,100,0.00,,,0.01,0.0,meteohub,2013-01-13 00:52:00,
2013-01-12 19:57:00,45.9,45.9,30.12,SW,217,0.0,1.0,100,0.00,,,0.01,0.0,meteohub,2013-01-13 00:57:00,
2013-01-12 20:02:00,45.9,45.9,30.12,SW,217,0.0,0.0,100,0.00,,,0.01,0.0,meteohub,2013-01-13 01:02:00,
2013-01-12 20:07:00,45.9,45.9,30.12,SW,217,0.0,0.0,100,0.00,,,0.01,0.0,meteohub,2013-01-13 01:07:00,
2013-01-12 20:12:00,45.7,45.7,30.12,SW,217,0.0,0.0,100,0.00,,,0.01,0.0,meteohub,2013-01-13 01:12:00,
2013-01-12 20:17:00,45.7,45.7,30.12,SW,217,0.0,0.0,100,0.00,,,0.01,0.0,meteohub,2013-01-13 01:17:00,
2013-01-12 20:22:00,45.7,45.7,30.12,SW,217,0.0,0.0,100,0.00,,,0.01,0.0,meteohub,2013-01-13 01:22:00,
2013-01-12 20:27:00,45.7,45.7,30.12,SW,217,0.0,1.0,100,0.00,,,0.01,0.0,meteohub,2013-01-13 01:27:00,
2013-01-12 20:32:00,45.7,45.7,30.12,SW,217,0.0,1.0,100,0.00,,,0.01,0.0,meteohub,2013-01-13 01:32:00,
2013-01-12 20:37:00,45.7,45.7,30.12,SW,217,0.0,1.0,100,0.00,,,0.01,0.0,meteohub,2013-01-13 01:37:00,
2013-01-12 20:42:00,45.7,45.7,30.11,SW,217,0.0,1.0,100,0.00,,,0.01,0.0,meteohub,2013-01-13 01:42:00,
2013-01-12 20:47:00,45.7,45.7,30.12,SW,217,0.0,1.0,100,0.00,,,0.01,0.0,meteohub,2013-01-13 01:47:00,
2013-01-12 20:52:00,45.5,45.5,30.12,SW,217,0.0,1.0,100,0.00,,,0.01,0.0,meteohub,2013-01-13 01:52:00,
2013-01-12 20:57:00,45.5,45.5,30.11,SW,217,0.0,1.0,100,0.00,,,0.01,0.0,meteohub,2013-01-13 01:57:00,
2013-01-12 21:03:00,45.5,45.5,30.11,SW,217,0.0,1.0,100,0.00,,,0.01,0.0,meteohub,2013-01-13 02:03:00,
2013-01-12 21:08:00,45.3,45.3,30.11,SW,217,0.0,1.0,100,0.00,,,0.01,0.0,meteohub,2013-01-13 02:08:00,
2013-01-12 21:13:00,45.1,45.1,30.11,SW,217,0.0,2.0,100,0.00,,,0.01,0.0,meteohub,2013-01-13 02:13:00,
2013-01-12 21:18:00,45.0,45.0,30.11,SW,217,0.0,2.0,100,0.00,,,0.01,0.0,meteohub,2013-01-13 02:18:00,
2013-01-12 21:23:00,45.0,45.0,30.12,SW,217,0.0,2.0,100,0.00,,,0.01,0.0,meteohub,2013-01-13 02:23:00,
2013-01-12 21:28:00,44.8,44.8,30.12,SW,217,0.0,2.0,100,0.00,,,0.01,0.0,meteohub,2013-01-13 02:28:00,
2013-01-12 21:33:00,44.8,44.8,30.12,SW,217,0.0,2.0,100,0.00,,,0.01,0.0,meteohub,2013-01-13 02:33:00,
2013-01-12 21:38:00,44.4,44.4,30.12,SW,217,1.0,1.0,100,0.00,,,0.01,0.0,meteohub,2013-01-13 02:38:00,
2013-01-12 21:43:00,44.4,44.4,30.12,SW,217,0.0,1.0,100,0.00,,,0.01,0.0,meteohub,2013-01-13 02:43:00,
2013-01-12 21:48:00,44.2,44.2,30.12,SW,217,0.0,1.0,100,0.00,,,0.01,0.0,meteohub,2013-01-13 02:48:00,
2013-01-12 21:54:00,44.2,44.2,30.12,SW,217,0.0,1.0,100,0.00,,,0.01,0.0,meteohub,2013-01-13 02:54:00,
2013-01-12 21:59:00,44.2,44.2,30.12,SW,217,0.0,2.0,100,0.00,,,0.01,0.0,meteohub,2013-01-13 02:59:00,
2013-01-12 22:04:00,44.2,44.2,30.12,SW,217,0.0,2.0,100,0.00,,,0.01,0.0,meteohub,2013-01-13 03:04:00,
2013-01-12 22:09:00,44.2,44.2,30.12,SW,217,0.0,2.0,100,0.00,,,0.01,0.0,meteohub,2013-01-13 03:09:00,
2013-01-12 22:14:00,44.2,44.2,30.12,SW,217,0.0,1.0,100,0.00,,,0.01,0.0,meteohub,2013-01-13 03:14:00,
2013-01-12 22:19:00,44.2,44.2,30.12,SW,217,0.0,1.0,100,0.00,,,0.01,0.0,meteohub,2013-01-13 03:19:00,
2013-01-12 22:24:00,44.2,44.2,30.11,SW,217,1.0,1.0,100,0.00,,,0.01,0.0,meteohub,2013-01-13 03:24:00,
2013-01-12 22:29:00,44.2,44.2,30.11,SW,217,0.0,1.0,100,0.00,,,0.01,0.0,meteohub,2013-01-13 03:29:00,
2013-01-12 22:34:00,44.2,44.2,30.11,SW,217,0.0,2.0,100,0.00,,,0.01,0.0,meteohub,2013-01-13 03:34:00,
2013-01-12 22:39:00,44.2,44.2,30.11,SW,217,0.0,4.0,100,0.00,,,0.01,0.0,meteohub,2013-01-13 03:39:00,
2013-01-12 22:44:00,44.1,44.1,30.11,SW,217,0.0,4.0,100,0.00,,,0.01,0.0,meteohub,2013-01-13 03:44:00,
2013-01-12 22:49:00,44.1,44.1,30.11,SW,217,0.0,4.0,100,0.00,,,0.01,0.0,meteohub,2013-01-13 03:49:00,
2013-01-12 22:55:00,43.9,43.9,30.11,SW,217,0.0,1.0,100,0.00,,,0.01,0.0,meteohub,2013-01-13 03:55:00,
2013-01-12 23:00:00,43.9,43.9,30.12,SW,217,0.0,1.0,100,0.00,,,0.01,0.0,meteohub,2013-01-13 04:00:00,
2013-01-12 23:05:00,43.9,43.9,30.11,SW,217,0.0,1.0,100,0.00,,,0.01,0.0,meteohub,2013-01-13 04:05:00,
2013-01-12 23:10:00,43.9,43.9,30.11,SW,217,0.0,1.0,100,0.00,,,0.01,0.0,meteohub,2013-01-13 04:10:00,
2013-01-12 23:15:00,43.7,43.7,30.11,SW,217,0.0,1.0,100,0.00,,,0.01,0.0,meteohub,2013-01-13 04:15:00,
2013-01-12 23:20:00,43.7,43.7,30.11,SW,217,0.0,2.0,100,0.00,,,0.01,0.0,meteohub,2013-01-13 04:20:00,
2013-01-12 23:25:00,43.7,43.7,30.11,SW,217,0.0,2.0,100,0.00,,,0.01,0.0,meteohub,2013-01-13 04:25:00,
2013-01-12 23:30:00,43.7,43.7,30.11,SW,217,0.0,2.0,100,0.00,,,0.01,0.0,meteohub,2013-01-13 04:30:00,
2013-01-12 23:35:00,43.9,43.9,30.11,SW,217,1.0,1.0,100,0.00,,,0.01,0.0,meteohub,2013-01-13 04:35:00,
2013-01-12 23:41:00,43.7,43.7,30.12,SW,217,0.0,1.0,100,0.00,,,0.01,0.0,meteohub,2013-01-13 04:41:00,
2013-01-12 23:46:00,43.7,43.7,30.12,SW,217,0.0,1.0,100,0.00,,,0.01,0.0,meteohub,2013-01-13 04:46:00,
2013-01-12 23:51:00,43.7,43.7,30.12,SW,217,0.0,1.0,100,0.00,,,0.01,0.0,meteohub,2013-01-13 04:51:00,
2013-01-12 23:56:00,43.7,43.7,30.13,SW,217,0.0,1.0,100,0.00,,,0.01,0.0,meteohub,2013-01-13 04:56:00,